{"data":{"norad_id":45183,"epoch":"2026-09-19T14:02:49.310880Z","epoch_age_seconds":93322,"freshness":"FRESH","line1":"1 45183U 20012F   26262.58529295  .00065777  00000+0  14531-2 0  9996","line2":"2 45183  53.1516 211.2014 0002789  96.0438 264.0887 15.43265259364742","mean_motion":15.43265259,"eccentricity":0.0002789,"inclination_deg":53.1516,"raan_deg":211.2014,"arg_perigee_deg":96.0438,"mean_anomaly_deg":264.0887,"bstar":0.0014531,"rev_number":36474,"period_min":93.308651354796,"perigee_km":434.57944262009,"apogee_km":438.38063600462,"semimajor_km":6814.6170393124,"source":"CELESTRAK","updated_at":"2026-09-20T09:00:38.225814Z"}}